| time (UTC) | temp F | wind direction | speed MPH | gust MPH | rain 1hr in | rain 24hr in | rain mn in | humidity % | barometer mb |
| 20260905201523 | 82 | 61 | 2.0 | 6.0 | 0.00 | 0.78 | 0.00 | 26 | 1009.1 |
| 20260905200027 | 81 | 31 | 1.0 | 4.0 | 0.00 | 0.78 | 0.00 | 26 | 1009.2 |
| 20260905194554 | 81 | 44 | 1.0 | 4.0 | 0.00 | 0.78 | 0.00 | 26 | 1009.3 |
| 20260905193016 | 81 | 301 | 2.0 | 5.0 | 0.00 | 0.78 | 0.00 | 26 | 1009.3 |
| 20260905191511 | 80 | 53 | 1.0 | 6.0 | 0.00 | 0.78 | 0.00 | 28 | 1009.6 |
| 20260905190122 | 79 | 30 | 1.0 | 5.0 | 0.00 | 0.78 | 0.00 | 29 | 1009.7 |
| 20260905184515 | 79 | 335 | 1.0 | 3.0 | 0.00 | 0.78 | 0.00 | 31 | 1009.8 |
| 20260905183009 | 79 | 57 | 1.0 | 4.0 | 0.00 | 0.78 | 0.00 | 30 | 1009.9 |
| 20260905181601 | 79 | 26 | 0.0 | 6.0 | 0.00 | 0.78 | 0.00 | 31 | 1009.8 |
| 20260905180058 | 79 | 40 | 3.0 | 8.0 | 0.00 | 0.78 | 0.00 | 30 | 1009.9 |
| 20260905174556 | 79 | 354 | 1.0 | 8.0 | 0.00 | 0.78 | 0.00 | 31 | 1010.0 |
| 20260905173053 | 78 | 7 | 3.0 | 7.0 | 0.00 | 0.78 | 0.00 | 32 | 1010.3 |
| 20260905171550 | 78 | 37 | 0.0 | 5.0 | 0.00 | 0.78 | 0.00 | 34 | 1010.4 |
| 20260905170048 | 76 | 96 | 0.0 | 2.0 | 0.00 | 0.78 | 0.00 | 36 | 1010.5 |
| 20260905164547 | 76 | 17 | 0.0 | 1.0 | 0.00 | 0.78 | 0.00 | 37 | 1011.2 |
| 20260905163045 | 76 | 45 | 0.0 | 4.0 | 0.00 | 0.78 | 0.00 | 36 | 1011.2 |
| 20260905161542 | 76 | 345 | 0.0 | 4.0 | 0.00 | 0.78 | 0.00 | 36 | 1011.4 |
| 20260905160042 | 76 | 349 | 0.0 | 4.0 | 0.00 | 0.78 | 0.00 | 38 | 1011.5 |
| 20260905154600 | 77 | 3 | 0.0 | 4.0 | 0.00 | 0.78 | 0.00 | 37 | 1011.6 |
| 20260905153036 | 77 | 3 | 0.0 | 4.0 | 0.00 | 0.78 | 0.00 | 36 | 1011.4 |
| 20260905151536 | 77 | 71 | 1.0 | 4.0 | 0.00 | 0.78 | 0.00 | 35 | 1011.5 |
| 20260905150032 | 77 | 319 | 0.0 | 5.0 | 0.00 | 0.78 | 0.00 | 35 | 1011.8 |
| 20260905144534 | 78 | 45 | 4.0 | 7.0 | 0.00 | 0.78 | 0.00 | 33 | 1011.5 |
| 20260905143100 | 78 | 50 | 1.0 | 6.0 | 0.00 | 0.78 | 0.00 | 33 | 1011.4 |
| 20260905141528 | 78 | 9 | 3.0 | 6.0 | 0.00 | 0.78 | 0.00 | 32 | 1011.4 |
| 20260905140026 | 78 | 265 | 0.0 | 2.0 | 0.00 | 0.78 | 0.00 | 36 | 1011.2 |
| 20260905134521 | 78 | 11 | 0.0 | 1.0 | 0.00 | 0.78 | 0.00 | 33 | 1010.7 |
| 20260905133035 | 78 | 359 | 0.0 | 3.0 | 0.00 | 0.78 | 0.00 | 34 | 1010.7 |
| 20260905131516 | 78 | 6 | 0.0 | 3.0 | 0.00 | 0.78 | 0.00 | 33 | 1010.6 |
| 20260905130015 | 76 | 316 | 0.0 | 2.0 | 0.00 | 0.78 | 0.00 | 35 | 1010.6 |
| 20260905124606 | 74 | 29 | 0.0 | 0.0 | 0.00 | 0.78 | 0.00 | 41 | 1010.7 |
| 20260905123002 | 73 | 30 | 0.0 | 0.0 | 0.00 | 0.78 | 0.00 | 43 | 1010.7 |
| 20260905121603 | 73 | 31 | 0.0 | 2.0 | 0.00 | 0.78 | 0.00 | 42 | 1010.7 |
| 20260905120054 | 72 | 1 | 0.0 | 1.0 | 0.00 | 0.78 | 0.00 | 45 | 1010.5 |
| 20260905114551 | 71 | 1 | 0.0 | 1.0 | 0.00 | 0.78 | 0.00 | 47 | 1010.5 |
| 20260905113051 | 70 | 1 | 0.0 | 0.0 | 0.00 | 0.78 | 0.00 | 49 | 1010.5 |
| 20260905111634 | 69 | 1 | 0.0 | 0.0 | 0.00 | 0.78 | 0.00 | 49 | 1010.5 |
| 20260905110043 | 0 | 0.0 | 0.0 | 0.00 | 0.78 | 0.00 | 1010.6 | ||
| 20260905104537 | 0 | 0.0 | 0.0 | 0.00 | 0.78 | 0.00 | 1009.9 | ||
| 20260905103034 | 0 | 0.0 | 0.0 | 0.00 | 0.78 | 0.00 | 1009.7 | ||
| 20260905101534 | 0 | 0.0 | 0.0 | 0.00 | 0.78 | 0.00 | 1009.5 | ||
| 20260905100022 | 0 | 13 | 0.0 | 2.0 | 0.00 | 0.78 | 0.00 | 1009.4 | |
| 20260905094517 | 69 | 278 | 0.0 | 0.0 | 0.00 | 0.78 | 0.00 | 49 | 1009.4 |
| 20260905093016 | 69 | 277 | 0.0 | 0.0 | 0.00 | 0.78 | 0.00 | 49 | 1009.3 |
| 20260905091516 | 69 | 277 | 0.0 | 0.0 | 0.00 | 0.78 | 0.00 | 49 | 1009.4 |
| 20260905090017 | 70 | 277 | 0.0 | 0.0 | 0.00 | 0.78 | 0.00 | 49 | 1009.4 |
| 20260905084509 | 69 | 277 | 0.0 | 0.0 | 0.00 | 0.78 | 0.00 | 49 | 1009.4 |
| 20260905083008 | 69 | 277 | 0.0 | 0.0 | 0.00 | 0.78 | 0.00 | 48 | 1009.4 |
| 20260905081503 | 70 | 276 | 0.0 | 0.0 | 0.00 | 0.78 | 0.00 | 48 | 1009.6 |
| 20260905080117 | 70 | 276 | 0.0 | 0.0 | 0.00 | 0.78 | 0.00 | 48 | 1009.6 |
| 20260905074557 | 70 | 276 | 0.0 | 1.0 | 0.00 | 0.78 | 0.00 | 48 | 1009.8 |
| 20260905073058 | 70 | 276 | 0.0 | 0.0 | 0.00 | 0.78 | 0.00 | 48 | 1009.8 |
| 20260905071552 | 70 | 276 | 0.0 | 0.0 | 0.00 | 0.78 | 0.00 | 49 | 1009.9 |
| 20260905070049 | 70 | 276 | 0.0 | 0.0 | 0.00 | 0.78 | 0.00 | 48 | 1010.0 |
| 20260905064546 | 70 | 276 | 0.0 | 0.0 | 0.00 | 0.78 | 0.00 | 48 | 1010.1 |
| 20260905063043 | 70 | 276 | 0.0 | 1.0 | 0.00 | 0.78 | 0.00 | 48 | 1010.3 |
| 20260905061538 | 70 | 266 | 0.0 | 1.0 | 0.00 | 0.78 | 0.00 | 49 | 1010.4 |
| 20260905060036 | 70 | 269 | 0.0 | 0.0 | 0.00 | 0.78 | 0.00 | 49 | 1010.8 |
| 20260905054537 | 70 | 269 | 0.0 | 0.0 | 0.00 | 0.79 | 0.00 | 48 | 1010.8 |
| 20260905053030 | 71 | 269 | 0.0 | 0.0 | 0.00 | 0.79 | 0.00 | 48 | 1011.0 |
| 20260905051534 | 71 | 269 | 0.0 | 1.0 | 0.00 | 0.79 | 0.00 | 48 | 1011.2 |
| 20260905050021 | 71 | 269 | 0.0 | 1.0 | 0.00 | 0.79 | 0.00 | 49 | 1011.2 |
| 20260905044520 | 72 | 269 | 0.0 | 0.0 | 0.00 | 0.80 | 0.00 | 49 | 1011.4 |
| 20260905043017 | 71 | 269 | 0.0 | 1.0 | 0.00 | 0.80 | 0.00 | 49 | 1011.5 |
| 20260905041514 | 71 | 262 | 1.0 | 2.0 | 0.00 | 0.80 | 0.00 | 49 | 1011.5 |
| 20260905040011 | 71 | 276 | 0.0 | 1.0 | 0.00 | 0.80 | 0.00 | 48 | 1011.7 |
| 20260905034508 | 71 | 269 | 0.0 | 1.0 | 0.00 | 1.31 | 0.80 | 48 | 1011.9 |
| 20260905033013 | 72 | 274 | 1.0 | 2.0 | 0.00 | 1.31 | 0.80 | 49 | 1012.0 |
| 20260905031615 | 71 | 285 | 0.0 | 3.0 | 0.00 | 1.31 | 0.80 | 49 | 1011.9 |
| 20260905030002 | 71 | 241 | 0.0 | 0.0 | 0.00 | 1.31 | 0.80 | 49 | 1011.8 |
| 20260905024601 | 71 | 228 | 0.0 | 1.0 | 0.00 | 1.31 | 0.80 | 49 | 1011.8 |
| 20260905023124 | 71 | 237 | 0.0 | 2.0 | 0.00 | 1.31 | 0.80 | 49 | 1011.9 |
| 20260905021556 | 71 | 240 | 0.0 | 1.0 | 0.00 | 1.31 | 0.80 | 48 | 1011.6 |
| 20260905020054 | 72 | 199 | 0.0 | 2.0 | 0.00 | 1.31 | 0.80 | 48 | 1011.3 |
| 20260905014655 | 72 | 146 | 0.0 | 2.0 | 0.00 | 1.31 | 0.80 | 48 | 1011.1 |
| 20260905013050 | 72 | 301 | 0.0 | 0.0 | 0.00 | 1.31 | 0.80 | 49 | 1011.1 |
| 20260905011551 | 72 | 302 | 0.0 | 1.0 | 0.00 | 1.31 | 0.80 | 48 | 1010.8 |
| 20260905004545 | 72 | 295 | 1.0 | 5.0 | 0.00 | 1.31 | 0.80 | 48 | 1010.7 |
| 20260905003043 | 72 | 241 | 0.0 | 1.0 | 0.00 | 1.31 | 0.80 | 48 | 1010.7 |
| 20260905001548 | 72 | 152 | 0.0 | 1.0 | 0.00 | 1.31 | 0.80 | 48 | 1010.6 |
| 20260905000038 | 73 | 160 | 0.0 | 2.0 | 0.00 | 1.31 | 0.80 | 48 | 1010.6 |
| 20260904234537 | 73 | 162 | 1.0 | 2.0 | 0.00 | 1.31 | 0.80 | 48 | 1010.7 |
| 20260904233041 | 72 | 223 | 0.0 | 1.0 | 0.00 | 1.31 | 0.80 | 48 | 1010.8 |
| 20260904231539 | 72 | 227 | 0.0 | 2.0 | 0.00 | 1.31 | 0.80 | 48 | 1010.9 |
| 20260904230057 | 72 | 238 | 0.0 | 2.0 | 0.00 | 1.31 | 0.80 | 48 | 1010.8 |
| 20260904224530 | 72 | 240 | 0.0 | 2.0 | 0.00 | 1.31 | 0.80 | 48 | 1010.4 |
| 20260904223028 | 72 | 275 | 0.0 | 0.0 | 0.00 | 1.31 | 0.80 | 48 | 1010.4 |
| 20260904221525 | 72 | 275 | 0.0 | 1.0 | 0.00 | 1.31 | 0.80 | 48 | 1010.5 |
| 20260904220027 | 71 | 257 | 0.0 | 2.0 | 0.00 | 1.31 | 0.80 | 48 | 1011.0 |
| 20260904214522 | 71 | 275 | 2.0 | 5.0 | 0.00 | 1.31 | 0.80 | 48 | 1011.5 |
| 20260904213028 | 71 | 269 | 0.0 | 1.0 | 0.00 | 1.31 | 0.80 | 48 | 1011.3 |
| 20260904211517 | 70 | 296 | 0.0 | 1.0 | 0.12 | 1.31 | 0.80 | 48 | 1011.3 |
| 20260904210016 | 70 | 346 | 0.0 | 4.0 | 0.78 | 1.31 | 0.80 | 47 | 1011.3 |
| 20260904204525 | 69 | 354 | 2.0 | 7.0 | 0.78 | 1.31 | 0.80 | 44 | 1011.5 |
| 20260904203017 | 69 | 37 | 0.0 | 3.0 | 0.78 | 1.31 | 0.80 | 48 | 1011.2 |